Location: Chochol
(49.7771°N, 14.9780°E)
Time: 13:51:04
(UTC+00:00)

Cosmos 1959 Rocket - Pass Details

Date: 09 April 2020
Orbit: 946 x 998 km, 82.9° (Epoch: 25 May)

Event Time Altitude Azimuth Distance (km) Brightness Sun altitude
Rises 19:39:27 0° 350° (N) 3,719 8.3 -17.5°
Reaches altitude 10° 19:41:59 10° 351° (N) 2,760 7.5 -17.8°
Maximum altitude 19:48:21 89° 74° (ENE) 987 4.5 -18.6°
Enters shadow 19:52:40 21° 172° (S) 2,009 5.7 -19.2°
